User: anonymous
Location: Columbia
(38.9520°N, 92.3340°W)
Time: 14:37:41
(UTC-05:00)
Language:

Meteor 1-4 Rocket - Orbit

View from above orbital plane
View from above orbital plane
View from above satellite
View from above satellite

Ground track
Ground track

The orbit data is extracted from the following two-line orbital elements,

1 04394U 70037B   14233.47840546  .00003054  00000-0  13332-3 0  6510
2 04394 081.2480 140.2332 0048810 031.5629 328.8512 15.20709978407634
Epoch (UTC): 21 August 2014 11:28:54
Eccentricity: 0.0048810
inclination: 81.2480°
perigee height: 470 km
apogee height: 537 km
right ascension of ascending node: 140.2332°
argument of perigee: 31.5629°
revolutions per day: 15.20709978
mean anomaly at epoch: 328.8512°
orbit number at epoch: 40763

The dashed part of the orbit path shows where the satellite is in the earth's shadow,  

DLR